User: anonymous   Login
Location: Unspecified
(0.0000°N, 0.0000°E)
Time: 05:54:57
(UTC+02:00)
Language:

Ariane 42L R/B - Orbit

View from above orbital plane
View from above orbital plane
View from above satellite
View from above satellite

Ground track
Ground track

The orbit data is extracted from the following two-line orbital elements,

1 26299U 00020B   15116.02359957  .00016257  00000-0  21372-2 0  9992
2 26299 007.4429 254.6732 6063655 349.1464 335.5421 03.96705538187169
Epoch (UTC): 26 April 2015 00:33:59
Eccentricity: 0.6063655
inclination: 7.4429°
perigee height: 257 km
apogee height: 20698 km
right ascension of ascending node: 254.6732°
argument of perigee: 349.1464°
revolutions per day: 3.96705538
mean anomaly at epoch: 335.5421°
orbit number at epoch: 18716

The dashed part of the orbit path shows where the satellite is in the earth's shadow,  

DLR